Regional Weather Roundup
Issued by NWS

Home | Current Version | Previous Version | Text Only | Print | Product List | Glossary On
Versions: 1 2 3 4 5 6 7 8 9 10 11 12 13 14 15 16 17 18 19 20 21 22 23 24 25 26 27 28 29 30 31 32 33 34 35 36 37 38 39 40 41 42 43 44 45 46 47 48 49 50
000
ASUS43 KMKX 290511
RWRWI

WISCONSIN REGIONAL WEATHER ROUNDUP
NATIONAL WEATHER SERVICE MILWAUKEE/SULLIVAN WI
1200 AM CDT SUN MAY 29 2016

NOTE: "FAIR" INDICATES FEW OR NO CLOUDS BELOW 12,000 FEET WITH NO
SIGNIFICANT WEATHER AND/OR OBSTRUCTIONS TO VISIBILITY.

WIZ001-002-006>008-014>016-023>028-290600-
NORTHWEST WISCONSIN

CITY           SKY/WX    TMP DP  RH WIND       PRES   REMARKS
SUPERIOR ARPT  FOG       50  50 100 CALM      29.81S VSB 1/2
ASHLAND        CLOUDY    51  50  96 N6        29.80S
HAYWARD        CLOUDY    60  59  96 CALM      29.80R
SIREN          CLOUDY    60  59  97 CALM      29.81R
CUMBERLAND     CLOUDY    61  59  94 CALM      29.82R
RICE LAKE      CLOUDY    62  60  94 CALM      29.82S
CHETEK         FOG       60  60 100 CALM      29.82R VSB 1/2
LADYSMITH      CLOUDY    62  61  96 SE3       29.83R
EAU CLAIRE     PTCLDY    60  59  96 S7        29.82R
MENOMONIE      PTCLDY    62  62  99 S3        29.81S
NEW RICHMOND   MOCLDY    61  61 100 W5        29.82R
OSCEOLA        CLOUDY    62  62 100 CALM      29.84R
$$

WIZ003>005-009-010-017-018-290600-
NORTH CENTRAL WISCONSIN

CITY           SKY/WX    TMP DP  RH WIND       PRES   REMARKS
MANITOWISH WTR NOT AVBL
ARBOR VITAE    MOCLDY    62  60  92 CALM      29.83S
WOODRUFF       MOCLDY    62  60  92 CALM      29.83S
RHINELANDER    CLOUDY    64  61  90 W3        29.84R
EAGLE RIVER      N/A     64  64  99 CALM      29.83S
LAND O LAKES   CLOUDY    63  63 100 CALM      29.85R
PHILLIPS       MOCLDY    59  59 100 CALM      29.81R
TOMAHAWK       CLOUDY    63  61  93 CALM      29.84R
MEDFORD        MOCLDY    61  61 100 S3        29.83R
MERRILL        CLOUDY    65  64  94 S5        29.83R
$$

WIZ029-030-035-036-043>047-290600-
CENTRAL WISCONSIN

CITY           SKY/WX    TMP DP  RH WIND       PRES   REMARKS
WAUSAU         MOCLDY    67  61  81 S12       29.82R
MOSINEE        PTCLDY    63  61  94 S9        29.85S
MARSHFIELD     CLOUDY    65  60  84 S9        29.83R
STEVENS POINT  MOCLDY    64  61  90 S10G16    29.86S
WAUPACA        CLOUDY    65  64  96 S6        29.87S
WAUTOMA        CLOUDY    65  63  93 S7        29.87F
WISC RAPIDS    MOCLDY    66  61  84 S9        29.86R
CAMP DOUGLAS   MOCLDY    65  65 100 S8        29.85R
$$

WIZ011>013-019>022-031-037>040-048>050-290600-
NORTHEAST WISCONSIN

CITY           SKY/WX    TMP DP  RH WIND       PRES   REMARKS
ANTIGO         CLOUDY    62  62 100 S9        29.86R
SHAWANO        CLOUDY    65  61  88 S7        29.86S
OCONTO         CLOUDY    63  63 100 S5        29.85F
STURGEON BAY   NOT AVBL
GREEN BAY      CLOUDY    65  61  87 S9        29.86F
MANITOWOC      MOCLDY    63  60  90 S13       29.90S
APPLETON       CLOUDY    63  63 100 S12       29.86F
CLINTONVILLE   CLOUDY    63  61  94 S8        29.86S
OSHKOSH        CLOUDY    64  61  90 S10       29.88F
$$

WIZ032>034-041-042-053>061-290600-
SOUTHWEST WISCONSIN

CITY           SKY/WX    TMP DP  RH WIND       PRES   REMARKS
LA CROSSE      MOCLDY    65  63  93 S3        29.83R
SPARTA         MOCLDY    64  63  94 S8        29.86R
VIROQUA        CLEAR     64  63  96 S7        29.88R
BOSCOBEL       PTCLDY    65  61  87 CALM      29.87R
PRAIRIE DU CHI CLOUDY    67  59  74 CALM      29.86R
PLATTEVILLE    PTCLDY    65  62  91 SE7       29.92R
$$

WIZ056-057-062-063-064-067-068-290600-
SOUTH CENTRAL WISCONSIN

CITY           SKY/WX    TMP DP  RH WIND       PRES   REMARKS
REEDSBURG      CLOUDY    65  64  95 S8        29.88S
BARABOO/DELLS  CLOUDY    65  62  90 S8        29.89S
LONE ROCK      CLOUDY    65  63  93 E3        29.90R
MINERAL POINT  MOCLDY    64  61  88 SE7       29.92R
MADISON        CLOUDY    68  63  84 S8        29.90S
MIDDLETON      CLOUDY    67  64  87 SW3       29.92R
WATERTOWN      CLOUDY    65  65 100 S7        29.92R
MONROE         CLOUDY    66  63  88 S8        29.93R
JANESVILLE     CLOUDY    68  66  94 S7        29.93S
$$

WIZ051-052-058>065-066-070>072-290600-
SOUTHEAST WISCONSIN

CITY           SKY/WX    TMP DP  RH WIND       PRES   REMARKS
MILWAUKEE      LGT RAIN  66  63  90 S8        29.94S
WAUKESHA       CLOUDY    63  61  94 S7        29.96R
MILWAUKEE/TIMM RAIN      64  61  88 S12       29.95S
RACINE         LGT RAIN  65  62  90 E5        29.96S
BURLINGTON     CLOUDY    63  62  96 S5        29.94F
KENOSHA        MOCLDY    65  62  90 S5        29.94F
FOND DU LAC    CLOUDY    65  61  87 S10       29.90S
SHEBOYGAN      PTCLDY    63  60  90 S8        29.92S
WEST BEND      CLOUDY    63  61  94 S8        29.93S
JUNEAU         CLOUDY    64  62  93 SE8       29.92S
$$

LSZ147-162-290600-
LAKE SUPERIOR

STATION/POSITION TIME  TEMP    WIND        PRES    WAVE
                       AIR SEA DIR/SP/G            HT/PER
                 (UTC) (F)     (DEG/KT/KT) (MB)    (FT/S)
W MID LAKE BUOY  0450   40 38  250/  2/  4 1009.6F   1/ 4
DEVILS ISLAND    0500   45      40/  3/  3 1009.5F
PORT WING        0400   44      CALM  /  2 1009.5S
SAXON HARBOR     0440   49     330/  4/  7 1008.8F
$$

LMZ867-665-643>646-290600-
LAKE MICHIGAN

STATION/POSITION TIME  TEMP    WIND        PRES    WAVE
                       AIR SEA DIR/SP/G            HT/PER
                 (UTC) (F)     (DEG/KT/KT) (MB)    (FT/S)
CHAMBERS ISLAND  0440   66     140/  7/ 15 1011.2R
N MID LAKE BUOY  0450   51 46  190/ 14/ 16 1011.9S   3/ 6
NORTHPORT PIER   0400   58     160/  3/ 10 1011.2S
SISTER BAY       0420   60     160/ 12/ 15   N/A
ALGOMA LAKESHORE 0447          210/ 12/ 14   N/A
KEWAUNEE LAKESHO 0400   61     170/  9/ 11 1012.1R
SHEBOYGAN LAKESH 0500   56     180/ 16/ 17 1013.2F
PORT WASHINGTON  0400   62     230/  6/  7 1014.2F
S MID LAKE BUOY  0450   57 50  220/ 10/ 12 1014.8R   1/ 4
KENOSHA   LAKESH 0500   60     190/  8/  9 1013.9F
$$

TC  - TEMPERATURE IN CELSIUS
VSB - VISIBILITY IN STATUTE MILES
WCI - WIND CHILL INDEX
HX  - HEAT INDEX





USA.gov is the U.S. government's official web portal to all federal, state and local government web resources and services.